STARLINK-34337 (64223 NORAD) Tracking and Keplerian Element Data

This shows tracking and keplerian element data for the satellite.

Feedback or suggestion? Click here.




ElementValue
Catalog64223
NameSTARLINK-34337
Epoch Orbit3234
Epoch Day354.13729925
Epoch Year2025
RAAN49.2725
Inclination53.1594
Eccentricity0.0001105
Argument of Perigee91.4441
Mean Anonmoly268.6687
Mean Motion15.30199534
Decay Rate8.407E-05
L11 64223U 25117W 25354.13729925 .00008407 00000+0 29566-3 0 9999
L22 64223 53.1594 49.2725 0001105 91.4441 268.6687 15.30199534 32340



Live tracking and technical data element details for STARLINK-34337 (NORAD 64223). STARLINK-34337 can be tracked NOW for your location showing map with azimuth and elevation plus other details from your city location.







IsCatalogInMostPopularTable: catalog: 64223, numindb: 3
Update: records affected: 1



GetName: 64223 STARLINK-34337

Hit Count: updated at: Tue, 17 Feb 2026 12:14:00 GMT